Regional Weather Roundup
Issued by NWS

Home | Current Version | Previous Version | Text Only | Print | Product List | Glossary On
Versions: 1 2 3 4 5 6 7 8 9 10 11 12 13 14 15 16 17 18 19 20 21 22 23 24 25 26 27 28 29 30 31 32 33 34 35 36 37 38 39 40 41 42 43 44 45 46 47 48 49 50
000
ASUS44 KMEG 210910
RWRTN
TENNESSEE HOURLY STATE WEATHER ROUNDUP
NATIONAL WEATHER SERVICE MEMPHIS TN
300 AM CST TUE FEB 21 2017

TNZ002-004-019-021-049-052-054-088>092-211000-
WEST TENNESSEE

CITY           SKY/WX    TMP DP  RH WIND       PRES   REMARKS
MEMPHIS INTL   LGT RAIN  62  57  83 W6        29.88S
NWS MEMPHIS      N/A     66 N/A N/A MISG        N/A
JACKSON        CLOUDY    63  49  60 E3        29.90F
UNION CITY     CLEAR     61  45  55 CALM      29.90F
PARIS          CLEAR     57  45  62 SE8       29.93F
HUNTINGDON     CLOUDY    59  48  67 E6        29.91F
$$

TNZ008-025-027-028-033-062-065-066-211000-
NORTH MIDDLE TENNESSEE

CITY           SKY/WX    TMP DP  RH WIND       PRES   REMARKS
NASHVILLE      CLOUDY    58  45  62 SE8       29.99F
PORTLAND       PTCLDY    61  46  59 SE9       29.98F
CLARKSVILLE    MOCLDY    56  45  66 SE3       29.96F
SMYRNA         CLOUDY    50  47  89 CALM      30.00F
COOKEVILLE     MOCLDY    61  45  55 SE10G16   30.03S
GALLATIN       PTCLDY    55  46  71 CALM      30.02F
CROSSVILLE     CLOUDY    54  43  66 S3        30.10R
$$

TNZ061-075-076-078-094-096-097-211000-
SOUTH MIDDLE TENNESSEE

CITY           SKY/WX    TMP DP  RH WIND       PRES   REMARKS
FAYETTEVILLE   PTCLDY    57  50  77 SE7       30.00F
TULLAHOMA      CLEAR     61  45  55 SE7       30.02F
MCMINNVILLE    CLEAR     63  46  55 SE6       30.03F
COLUMBIA       CLEAR     63  55  77 SE5       29.95F
SHELBYVILLE    CLEAR     63  48  59 SE7       30.00F
$$

TNZ017-018-042-046-047-211000-
NORTHEAST TENNESSEE

CITY           SKY/WX    TMP DP  RH WIND       PRES   REMARKS
TRI CITIES     MOCLDY    42  36  79 CALM      30.14S
ELIZABETHTON   PTCLDY    57  37  47 E6        30.14S
$$

TNZ012-013-036-069-073-074-211000-
CENTRAL EAST TENNESSEE

CITY           SKY/WX    TMP DP  RH WIND       PRES   REMARKS
KNOXVILLE      CLOUDY    49  43  80 NE6       30.09F
GATLINBURG     CLEAR     43  39  87 CALM      30.10F
MORRISTOWN     CLEAR     48  43  81 CALM      30.10F
JACKSBORO      CLEAR     43  43 100 CALM      30.13S
$$

TNZ083-085-099-211000-
SOUTHEAST TENNESSEE

CITY           SKY/WX    TMP DP  RH WIND       PRES   REMARKS
CHATTANOOGA    CLOUDY    50  47  89 CALM      30.09S
$$

SKY/WX REPORTED AS FAIR MEANS FEW OR NO CLOUDS BELOW
12 THOUSAND FEET.




USA.gov is the U.S. government's official web portal to all federal, state and local government web resources and services.